"Pseudo-MPEC" for P115bLP

Created 2020 Sep 23 16:07:19 UT using Find_Orb

Click here for an explanation of pseudo-MPECs

 
 Astrometry: 
     P115bLP  C2020 09 0809aeB2a66Iitx%`AstrometryRc5LS.kaubredacted;V3kE)/UDF51
     P115bLP  C2020 09 08NwclickV6gl90Ak5[DSpherep`XaG-#W@H#\+flO;i`+1RDAM51bF51
     P115bLP  C2020 09 083X]$jx%R!\r$9U/G9ujyU+$forwYmbA'ZTd8x=explanation=PSF51

Station data:
(F51) Pan-STARRS 1, Haleakala  (N20.707235 W156.255910)  US/Hawaii.
   Observers N. Primak, A. Schultz, S. Watters, J. Thiel, T. Goggia. Measurer
   PS1 Science Consortium. 1.8-m Ritchey-Chrétien + CCD.

Orbital elements:  P115bLP
   Perihelion 2020 Jul 14.829698 +/- 31 TT = 19:54:45 (JD 2459045.329698)
Epoch 2020 Sep  8.0 TT = JDT 2459100.5   Earth MOID: 0.0121   AutoNEOCP
M  49.27202076 +/- 33               (J2000 ecliptic)
n   0.89308955 +/- 0.532            Peri.  126.44315 +/- 60
a   1.06792161 +/- 0.424            Node   162.84927 +/- 25
e   0.0672572 +/- 0.248             Incl.    6.34390 +/- 18
P   1.10/403.09d           H 27.2   G  0.15   U 12.3  SR
q 0.99609617 +/- 0.327    Q 1.13974705 +/- 27.8
From 3 observations 2020 Sept. 8 (44.6 min); mean residual 0".03
Residuals in arcseconds: 
200908 F51  .03+  .01+    200908 F51  .05-  .02-    200908 F51  .02+  .01+    

Ephemerides (geocentric):
Date (UTC) HH   RA              Dec         delta   r     elong  mag " sig PA
---- -- -- --  -------------   -----------  ------ ------ -----  --- ---- ---
2020 09 23 16  23 19 55.027   -46 58 17.81  .05330 1.0396 131.8 22.7  34d 156
2020 09 23 17  23 20 08.325   -46 58 31.83  .05340 1.0396 131.8 22.7  34d 156
2020 09 23 18  23 20 21.580   -46 58 45.56  .05350 1.0396 131.7 22.7  34d 156
2020 09 23 19  23 20 34.795   -46 58 59.00  .05359 1.0397 131.7 22.7  34d 156
2020 09 23 20  23 20 47.968   -46 59 12.15  .05369 1.0397 131.7 22.7  34d 156
2020 09 23 21  23 21 01.101   -46 59 25.02  .05379 1.0398 131.7 22.7  34d 156
2020 09 23 22  23 21 14.193   -46 59 37.60  .05388 1.0398 131.7 22.7  34d 156
2020 09 23 23  23 21 27.244   -46 59 49.89  .05398 1.0399 131.7 22.7  34d 156
2020 09 24 00  23 21 40.255   -47 00 01.91  .05408 1.0399 131.6 22.7  34d 156
2020 09 24 01  23 21 53.226   -47 00 13.64  .05417 1.0399 131.6 22.8  34d 156
2020 09 24 02  23 22 06.157   -47 00 25.09  .05427 1.0400 131.6 22.8  34d 156
2020 09 24 03  23 22 19.047   -47 00 36.27  .05437 1.0400 131.6 22.8  34d 156
2020 09 24 04  23 22 31.898   -47 00 47.17  .05446 1.0401 131.6 22.8  34d 156
2020 09 24 05  23 22 44.710   -47 00 57.80  .05456 1.0401 131.6 22.8  34d 156
2020 09 24 06  23 22 57.482   -47 01 08.16  .05466 1.0402 131.6 22.8  34d 156
2020 09 24 07  23 23 10.214   -47 01 18.24  .05475 1.0402 131.5 22.8  34d 156
2020 09 24 08  23 23 22.908   -47 01 28.06  .05485 1.0403 131.5 22.8  34d 156
2020 09 24 09  23 23 35.562   -47 01 37.61  .05495 1.0403 131.5 22.8  34d 156
2020 09 24 10  23 23 48.178   -47 01 46.89  .05504 1.0403 131.5 22.8  34d 156
2020 09 24 11  23 24 00.755   -47 01 55.91  .05514 1.0404 131.5 22.8  34d 156
2020 09 24 12  23 24 13.293   -47 02 04.67  .05524 1.0404 131.5 22.8  34d 156
2020 09 24 13  23 24 25.793   -47 02 13.17  .05533 1.0405 131.4 22.8  34d 156
2020 09 24 14  23 24 38.255   -47 02 21.41  .05543 1.0405 131.4 22.8  34d 156
2020 09 24 15  23 24 50.679   -47 02 29.39  .05553 1.0406 131.4 22.8  34d 156
2020 09 24 16  23 25 03.064   -47 02 37.11  .05563 1.0406 131.4 22.8  34d 156
2020 09 24 17  23 25 15.412   -47 02 44.58  .05572 1.0406 131.4 22.8  34d 156
2020 09 24 18  23 25 27.723   -47 02 51.80  .05582 1.0407 131.4 22.8  34d 156
2020 09 24 19  23 25 39.996   -47 02 58.76  .05592 1.0407 131.3 22.8  34d 156
2020 09 24 20  23 25 52.231   -47 03 05.47  .05601 1.0408 131.3 22.8  34d 156
2020 09 24 21  23 26 04.429   -47 03 11.94  .05611 1.0408 131.3 22.8  34d 156
2020 09 24 22  23 26 16.590   -47 03 18.16  .05621 1.0409 131.3 22.8  34d 156
2020 09 24 23  23 26 28.715   -47 03 24.13  .05631 1.0409 131.3 22.8  34d 156
2020 09 25 00  23 26 40.802   -47 03 29.86  .05640 1.0410 131.3 22.8  34d 156
2020 09 25 01  23 26 52.853   -47 03 35.34  .05650 1.0410 131.3 22.9  34d 156
2020 09 25 02  23 27 04.867   -47 03 40.58  .05660 1.0410 131.2 22.9  34d 156
2020 09 25 03  23 27 16.845   -47 03 45.58  .05670 1.0411 131.2 22.9  34d 156
2020 09 25 04  23 27 28.787   -47 03 50.35  .05679 1.0411 131.2 22.9  34d 156
2020 09 25 05  23 27 40.693   -47 03 54.87  .05689 1.0412 131.2 22.9  34d 156
2020 09 25 06  23 27 52.563   -47 03 59.16  .05699 1.0412 131.2 22.9  34d 156
2020 09 25 07  23 28 04.397   -47 04 03.22  .05709 1.0413 131.2 22.9  34d 155
2020 09 25 08  23 28 16.195   -47 04 07.04  .05718 1.0413 131.1 22.9  34d 155
2020 09 25 09  23 28 27.958   -47 04 10.63  .05728 1.0414 131.1 22.9  34d 155
2020 09 25 10  23 28 39.685   -47 04 13.99  .05738 1.0414 131.1 22.9  34d 155
2020 09 25 11  23 28 51.378   -47 04 17.12  .05748 1.0414 131.1 22.9  34d 155
2020 09 25 12  23 29 03.035   -47 04 20.02  .05757 1.0415 131.1 22.9  34d 155
2020 09 25 13  23 29 14.657   -47 04 22.69  .05767 1.0415 131.1 22.9  34d 155
2020 09 25 14  23 29 26.244   -47 04 25.14  .05777 1.0416 131.1 22.9  34d 155
2020 09 25 15  23 29 37.797   -47 04 27.37  .05787 1.0416 131.0 22.9  34d 155